{"data":{"norad_id":67949,"intl_designator":"2026-037T","name":"STARLINK-36863","alt_names":[],"object_type":"PAYLOAD","status":"ACTIVE","operator":null,"country":"US","launch_date":"2026-02-24","launch_site_code":"AFETR","launch_vehicle":null,"mission":null,"orbit_class":"UNKNOWN","rcs_meters":null,"size_class":null,"mass_kg":null,"dimensions":null,"purposes":["comms"],"wikipedia_slug":null,"has_3d_model":false,"image_url":null,"decayed_at":null,"tle_current":{"epoch":"2026-09-19T11:34:21.155520Z","epoch_age_seconds":151186,"freshness":"FRESH","line1":"1 67949U 26037T   26262.48218930  .00008785  00000+0  32834-3 0  9996","line2":"2 67949  43.0029 175.8551 0001397 273.2728  86.7964 15.27584052 32989","mean_motion":15.27584052,"eccentricity":0.0001397,"inclination_deg":43.0029,"raan_deg":175.8551,"arg_perigee_deg":273.2728,"mean_anomaly_deg":86.7964,"bstar":0.00032834,"rev_number":3298,"period_min":94.26649866596,"perigee_km":482.07845691815,"apogee_km":483.99546892339,"semimajor_km":6861.1739629208,"source":"CELESTRAK","updated_at":"2026-09-20T09:00:43.710331Z"}}}